Date String (YYYY-MM-DD hh:mm:ss) UTC,Instrument flags,Ambient pressure (hPa),Sample flow (lpm),Bypass flow (lpm),Sample temperature (°C),Ambient temperature (°C),ASC tube jacket temperature (°C),LED temperature (°C),Box temperature (°C),Sample RH (%),Span deviation,Mass concentration (μg/m³),Mass concentration (μg/m³),Mass concentration (μg/m³)
DateTimeUTC,F1_M11,P_M11,Q1_M11,Q2_M11,T1_M11,T2_M11,T3_M11,T4_M11,T5_M11,U1_M11,ZSPAN_M11,X0_M11,X2_M11,X1_M11
2023-01-24 03:00:00,,0823.9,4.99,0.00,21.6,19.6,00.0,30.5,23.1,15.2,-000.4,0017.48,0015.61,0015.30
2023-01-24 03:01:00,,0823.8,5.00,0.00,21.6,19.6,00.0,30.5,23.1,15.3,-000.2,0017.45,0015.65,0015.33
2023-01-24 03:02:00,,0823.8,5.00,0.00,21.5,19.5,00.0,30.5,23.0,15.3,-000.7,0017.47,0015.67,0015.33
2023-01-24 03:03:00,,0823.8,5.01,0.00,21.5,19.5,00.0,30.4,23.0,15.3,-001.3,0017.45,0015.70,0015.37
2023-01-24 03:04:00,,0823.8,4.99,0.00,21.5,19.5,00.0,30.4,23.0,15.3,-001.5,0017.40,0015.70,0015.38
2023-01-24 03:05:00,,0823.8,5.01,0.00,21.5,20.4,00.0,30.4,23.2,15.3,-001.5,0016.79,0015.68,0015.37
2023-01-24 03:06:00,,0823.8,5.00,0.00,21.6,21.7,00.0,30.4,23.5,15.2,-001.4,0016.65,0015.66,0015.36
2023-01-24 03:07:00,,0823.7,4.99,0.00,21.7,22.3,00.0,30.4,23.7,15.2,-001.2,0016.65,0015.66,0015.36
2023-01-24 03:08:00,,0823.7,5.00,0.00,21.8,22.0,00.0,30.4,23.7,15.1,-001.3,0016.70,0015.67,0015.35
2023-01-24 03:09:00,,0823.7,5.01,0.00,21.8,21.5,00.0,30.5,23.7,15.1,-001.2,0016.73,0015.69,0015.36
2023-01-24 03:10:00,,0823.7,5.01,0.00,21.8,21.0,00.0,30.5,23.6,15.1,-001.2,0016.67,0015.70,0015.38
2023-01-24 03:11:00,,0823.7,4.99,0.00,21.8,20.7,00.0,30.5,23.5,15.1,-001.0,0016.63,0015.71,0015.40
2023-01-24 03:12:00,,0823.7,5.02,0.00,21.8,20.4,00.0,30.5,23.4,15.1,-001.1,0016.54,0015.68,0015.39
2023-01-24 03:13:00,,0823.7,5.01,0.00,21.7,20.2,00.0,30.5,23.4,15.1,-001.0,0016.49,0015.66,0015.39
2023-01-24 03:14:00,,0823.7,4.99,0.00,21.7,20.1,00.0,30.5,23.3,15.1,-000.6,0016.48,0015.64,0015.36
2023-01-24 03:15:00,,0823.7,5.00,0.00,21.7,19.9,00.0,30.5,23.3,15.1,-000.4,0016.46,0015.59,0015.31
2023-01-24 03:16:00,,0823.7,5.01,0.00,21.6,19.7,00.0,30.5,23.2,15.1,-000.3,0016.48,0015.57,0015.28
2023-01-24 03:17:00,,0823.6,5.00,0.00,21.6,19.7,00.0,30.5,23.1,15.1,-000.0,0016.45,0015.53,0015.25
2023-01-24 03:18:00,,0823.6,4.99,0.00,21.6,19.5,00.0,30.5,23.1,15.2,-000.4,0016.46,0015.49,0015.22
2023-01-24 03:19:00,,0823.6,5.01,0.00,21.5,19.4,00.0,30.4,23.0,15.2,-000.4,0016.45,0015.46,0015.20
2023-01-24 03:20:00,,0823.6,5.00,0.00,21.5,19.2,00.0,30.4,22.9,15.2,0000.0,0016.43,0015.44,0015.18
2023-01-24 03:21:00,,0823.6,5.00,0.00,21.4,19.6,00.0,30.4,23.0,15.2,-000.0,0016.34,0015.37,0015.11
2023-01-24 03:22:00,,0823.6,5.00,0.00,21.5,20.9,00.0,30.4,23.3,15.2,-000.2,0016.30,0015.34,0015.08
2023-01-24 03:23:00,,0823.5,5.00,0.00,21.7,22.0,00.0,30.4,23.6,15.1,-000.0,0016.41,0015.31,0015.05
2023-01-24 03:24:00,,0823.4,5.00,0.00,21.7,22.0,00.0,30.4,23.7,15.0,0000.2,0016.70,0015.30,0015.04
2023-01-24 03:25:00,,0823.4,4.99,0.00,21.7,21.3,00.0,30.4,23.5,15.0,0000.3,0016.72,0015.29,0015.05
2023-01-24 03:26:00,,0823.4,5.00,0.00,21.7,20.7,00.0,30.4,23.4,15.1,0000.5,0016.68,0015.30,0015.07
2023-01-24 03:27:00,,0823.4,4.98,0.00,21.7,20.4,00.0,30.4,23.3,15.1,0000.7,0016.69,0015.32,0015.09
2023-01-24 03:28:00,,0823.3,5.01,0.00,21.7,20.2,00.0,30.4,23.2,15.1,0000.5,0016.70,0015.34,0015.11
2023-01-24 03:29:00,,0823.4,5.01,0.00,21.6,20.0,00.0,30.4,23.2,15.1,0000.3,0016.67,0015.37,0015.14
2023-01-24 03:30:00,,0823.3,5.02,0.00,21.6,19.7,00.0,30.4,23.1,15.2,0000.1,0016.63,0015.38,0015.16
2023-01-24 03:31:00,,0823.4,5.01,0.00,21.5,19.5,00.0,30.4,23.0,15.2,-000.1,0016.61,0015.39,0015.19
2023-01-24 03:32:00,,0823.4,5.01,0.00,21.5,19.3,00.0,30.4,22.9,15.3,0000.1,0016.68,0015.45,0015.26
2023-01-24 03:33:00,,0823.4,4.99,0.00,21.4,19.2,00.0,30.4,22.9,15.3,0000.0,0016.77,0015.51,0015.31
2023-01-24 03:34:00,,0823.4,5.00,0.00,21.4,19.1,00.0,30.3,22.8,15.3,-000.0,0016.72,0015.58,0015.36
2023-01-24 03:35:00,,0823.3,5.02,0.00,21.3,19.0,00.0,30.3,22.7,15.4,-000.1,0016.50,0015.62,0015.39
2023-01-24 03:36:00,,0823.4,5.01,0.00,21.3,19.5,00.0,30.3,22.8,15.4,-000.2,0016.44,0015.62,0015.40
2023-01-24 03:37:00,,0823.4,5.00,0.00,21.4,20.9,00.0,30.2,23.1,15.4,-000.5,0016.46,0015.62,0015.38
2023-01-24 03:38:00,,0823.4,5.00,0.00,21.5,21.9,00.0,30.3,23.4,15.3,-000.7,0016.40,0015.59,0015.36
2023-01-24 03:39:00,,0823.3,5.00,0.00,21.6,21.8,00.0,30.3,23.5,15.2,-000.8,0016.40,0015.58,0015.33
2023-01-24 03:40:00,,0823.3,4.99,0.00,21.6,21.1,00.0,30.3,23.3,15.2,-000.7,0016.40,0015.57,0015.33
2023-01-24 03:41:00,,0823.3,5.01,0.00,21.6,20.5,00.0,30.3,23.2,15.2,-000.8,0016.35,0015.54,0015.30
2023-01-24 03:42:00,,0823.2,5.01,0.00,21.5,20.1,00.0,30.3,23.0,15.2,-000.9,0016.83,0015.53,0015.29
2023-01-24 03:43:00,,0823.2,5.01,0.00,21.5,19.8,00.0,30.3,23.0,15.3,-000.9,0017.03,0015.53,0015.28
2023-01-24 03:44:00,,0823.3,5.03,0.00,21.4,19.6,00.0,30.3,22.9,15.3,-000.8,0016.98,0015.49,0015.25
2023-01-24 03:45:00,,0823.2,4.98,0.00,21.4,19.4,00.0,30.3,22.9,15.3,-001.0,0016.98,0015.47,0015.22
2023-01-24 03:46:00,,0823.3,5.01,0.00,21.3,19.2,00.0,30.3,22.8,15.4,-001.0,0016.91,0015.47,0015.23
2023-01-24 03:47:00,,0823.2,5.00,0.00,21.3,19.1,00.0,30.2,22.7,15.4,-000.7,0016.93,0015.50,0015.26
2023-01-24 03:48:00,,0823.3,4.99,0.00,21.2,19.3,00.0,30.2,22.7,15.5,-000.5,0016.95,0015.55,0015.32
2023-01-24 03:49:00,,0823.2,5.01,0.00,21.3,20.6,00.0,30.2,23.0,15.4,-000.4,0017.04,0015.62,0015.38
2023-01-24 03:50:00,,0823.2,5.00,0.00,21.5,21.8,00.0,30.2,23.4,15.3,-000.6,0017.14,0015.71,0015.47
2023-01-24 03:51:00,,0823.2,5.00,0.00,21.6,22.1,00.0,30.2,23.5,15.2,-000.5,0017.21,0015.78,0015.54
2023-01-24 03:52:00,,0823.2,4.99,0.00,21.6,21.4,00.0,30.3,23.4,15.2,-000.3,0017.33,0015.88,0015.63
2023-01-24 03:53:00,,0823.2,5.00,0.00,21.5,20.7,00.0,30.3,23.2,15.2,-000.3,0016.94,0015.97,0015.71
2023-01-24 03:54:00,,0823.2,5.00,0.00,21.5,20.1,00.0,30.3,23.0,15.2,-000.5,0017.50,0016.04,0015.79
2023-01-24 03:55:00,,0823.1,5.00,0.00,21.4,19.7,00.0,30.3,22.9,15.3,-000.5,0017.79,0016.12,0015.87
2023-01-24 03:56:00,,0823.1,5.01,0.00,21.4,19.4,00.0,30.3,22.8,15.3,-000.3,0017.79,0016.18,0015.94
2023-01-24 03:57:00,,0823.1,5.00,0.00,21.3,19.2,00.0,30.2,22.8,15.3,-000.5,0017.83,0016.23,0016.00
2023-01-24 03:58:00,,0823.1,4.98,0.00,21.3,19.1,00.0,30.2,22.7,15.4,-000.7,0017.85,0016.26,0016.04
2023-01-24 03:59:00,,0823.0,4.99,0.00,21.2,19.0,00.0,30.2,22.6,15.4,-000.8,0017.88,0016.29,0016.07
